Theta_e
329 330 330 330 331 333 331 331 333 335 337 337 337 337 338 338 337 337 337 337 337 338 339 339 339 339 339 339 340 341 341 341 341 341 340 340 342 342 341 341 340 339 337 337 338 341 341 340 340 339 338 338 335 326 321 319 317 316 315 317 320 324 325 323 323 326 331 336 338 339 339 337 336 338 339 339 339 339 340 341 341 338 336 338 340
328 328 329 329 330 331 330 330 331 333 334 335 336 336 337 337 338 338 338 338 338 338 339 338 338 339 339 339 339 340 340 341 341 341 340 341 341 341 341 341 340 338 338 339 339 340 340 340 339 339 338 337 337 334 330 327 324 322 321 319 317 319 322 324 322 321 326 331 335 337 338 336 333 335 337 338 339 339 340 341 342 341 341 342 340
327 328 328 328 329 330 329 329 329 330 331 333 334 335 336 336 337 338 338 338 338 339 338 339 339 339 339 339 339 339 339 340 340 340 340 341 341 340 340 340 340 339 338 337 338 340 340 339 339 338 337 337 337 337 336 334 333 332 333 331 327 322 319 320 321 320 322 328 332 336 337 337 334 334 336 337 337 338 340 341 342 340 341 342 341
327 328 327 328 328 328 328 328 328 328 329 331 332 333 334 335 335 336 337 338 337 338 338 338 338 338 338 339 338 338 338 338 338 338 339 339 339 339 340 339 340 339 338 337 337 338 339 339 339 338 337 338 337 337 337 337 337 337 337 337 336 333 328 323 321 319 318 324 330 334 338 340 340 341 341 338 337 338 338 340 340 337 338 340 340
325 326 326 327 327 327 326 326 327 327 328 329 330 331 332 333 333 334 335 335 335 335 335 336 336 336 336 337 337 337 337 336 336 336 337 337 337 338 338 338 339 339 338 337 338 338 338 338 338 338 338 338 338 337 337 337 338 339 338 338 337 337 336 333 330 325 319 320 325 331 339 343 345 346 344 341 338 337 337 340 340 336 336 341 342
324 324 324 325 325 325 324 325 325 325 326 326 327 328 330 331 331 332 332 332 332 332 333 333 333 334 334 335 335 336 335 335 335 334 334 334 335 336 336 336 337 338 338 337 337 338 338 338 337 338 338 338 337 337 336 337 338 339 339 338 337 336 336 337 337 335 328 321 322 331 340 344 346 346 346 344 338 336 336 338 340 337 338 341 342
321 322 322 322 323 323 323 323 323 323 323 323 324 325 326 327 328 329 330 330 330 331 331 331 332 332 332 332 332 333 333 334 333 332 332 332 333 333 334 335 335 336 336 336 336 338 338 338 338 337 337 337 337 336 336 336 337 338 338 336 334 335 335 336 337 338 336 330 328 335 340 342 344 345 346 345 340 337 336 339 340 338 340 342 342
320 320 320 320 321 321 321 320 319 319 319 319 319 320 321 322 324 326 327 328 328 329 329 329 330 330 330 330 330 330 331 331 331 331 331 331 331 331 332 332 333 333 334 335 336 337 337 337 338 337 337 336 336 336 336 335 337 337 336 335 333 334 335 336 338 338 338 337 334 335 338 340 342 343 343 344 341 337 335 338 340 338 338 341 343
318 318 318 318 318 318 317 315 314 314 313 313 313 314 315 317 318 320 322 323 325 325 326 327 327 327 327 327 327 328 328 328 329 329 329 329 329 329 330 331 331 331 331 332 334 334 335 336 336 336 336 337 336 335 335 334 335 335 333 333 332 333 334 336 337 337 338 339 337 334 335 337 339 339 340 341 339 337 335 337 340 339 339 340 343
315 315 316 316 314 312 311 309 308 307 307 306 307 308 308 310 311 312 314 315 318 320 321 322 323 323 323 323 324 324 324 325 325 326 326 327 327 328 328 329 329 329 330 331 331 332 332 334 334 334 334 335 334 334 334 332 332 332 332 332 332 333 334 336 337 336 337 340 339 337 335 334 334 334 336 335 330 330 333 336 339 340 339 341 342
311 312 312 310 308 306 306 306 305 304 303 303 303 304 304 304 305 306 306 308 310 311 313 314 316 317 317 318 319 320 320 320 321 322 322 323 324 324 325 326 327 328 329 329 329 330 331 331 332 332 333 333 332 332 332 332 331 331 332 332 332 332 332 335 335 336 338 339 339 339 338 337 335 333 335 330 319 319 325 332 339 340 338 339 341
306 306 306 304 302 302 303 303 303 303 302 301 301 301 301 301 301 302 302 303 303 304 305 306 307 308 309 310 311 313 314 315 316 316 317 318 319 320 321 322 324 325 326 327 327 328 329 329 330 331 331 331 331 331 331 331 331 330 330 331 331 331 332 332 333 336 337 337 338 339 339 340 339 337 337 332 323 318 318 325 335 340 339 338 339
302 301 301 301 300 300 300 300 300 300 300 300 299 299 299 299 299 299 299 300 300 300 300 300 301 301 302 302 304 305 306 308 308 309 310 311 313 314 316 318 319 320 321 322 323 324 325 326 327 327 328 329 330 330 330 330 330 330 329 329 330 330 331 330 331 334 335 336 337 337 338 339 340 340 339 335 331 327 322 323 330 338 340 339 337
299 299 298 299 299 299 299 299 298 298 298 298 298 298 298 298 298 298 298 298 298 298 298 298 298 298 298 299 299 300 301 302 302 303 304 305 307 309 311 312 314 314 315 316 318 319 321 322 323 323 324 326 327 329 330 330 330 330 329 328 329 329 330 329 331 334 335 336 336 336 337 338 339 340 339 335 333 332 328 325 328 336 340 340 337
298 298 298 298 298 298 298 298 298 298 297 297 297 297 297 297 297 297 297 297 297 297 297 297 297 297 297 297 298 298 298 298 299 299 299 300 302 303 305 307 308 309 310 311 312 313 314 316 317 319 320 322 324 326 328 329 330 331 330 330 329 328 329 329 331 333 334 335 336 336 336 338 338 339 337 334 334 333 331 328 329 334 339 340 339
298 297 297 297 297 297 297 297 297 297 297 297 297 296 296 296 296 296 297 297 296 296 296 296 296 296 296 296 297 297 297 297 297 297 297 297 298 299 300 302 303 304 305 306 307 308 309 310 312 314 316 318 320 322 324 326 328 329 330 330 329 329 328 327 329 331 333 334 335 336 336 337 337 336 335 335 334 333 333 332 331 333 337 341 340
297 297 296 297 296 296 296 296 296 296 296 296 296 296 296 296 296 296 296 296 296 296 296 296 296 296 296 296 296 296 296 296 296 295 296 296 296 296 297 298 298 299 300 301 302 302 303 305 306 308 310 313 316 318 320 322 323 326 328 329 329 328 328 328 327 329 332 332 333 334 335 336 334 331 333 335 334 334 333 333 333 334 336 340 341
296 296 296 296 296 296 296 296 296 296 296 296 296 296 296 296 296 296 296 296 296 296 296 296 296 296 296 296 295 296 295 295 295 295 295 295 295 296 296 296 296 297 297 297 298 298 298 299 300 302 304 306 310 313 315 317 319 321 323 325 327 328 328 327 327 330 332 333 333 334 334 335 334 330 329 331 333 334 332 332 333 334 334 337 340
296 295 295 296 296 296 296 296 296 296 296 295 296 295 295 295 295 295 296 296 296 296 296 296 296 296 296 296 296 296 296 295 295 295 295 295 295 295 295 296 296 296 296 296 297 296 297 297 297 297 298 299 302 304 308 311 313 315 318 320 323 325 326 328 329 331 332 333 333 334 334 334 334 330 326 327 329 331 331 331 332 333 334 336 339
295 295 295 295 295 295 295 295 295 295 295 295 295 295 295 295 295 295 295 295 295 295 296 296 295 296 295 295 296 296 296 296 296 296 295 295 295 295 296 295 295 296 296 296 296 296 296 296 296 296 297 297 297 298 300 302 305 308 311 314 317 320 323 326 329 331 332 332 333 334 334 334 333 330 326 324 324 326 329 331 332 332 333 334 338
295 295 295 295 295 295 295 295 295 295 295 295 294 294 294 294 294 294 294 295 295 295 295 295 295 295 295 295 295 296 296 296 296 296 296 295 295 295 295 295 295 295 296 295 295 295 295 295 296 296 296 296 297 297 297 297 298 300 304 307 311 315 318 321 323 326 329 331 332 333 333 333 332 329 328 328 326 325 327 330 331 332 332 333 336
297 296 295 295 295 294 294 294 294 294 294 294 294 294 294 294 294 294 294 294 294 295 295 295 295 295 295 295 295 295 295 295 295 295 295 295 295 295 295 295 295 295 295 295 295 295 295 295 295 295 296 296 296 296 297 297 297 297 298 300 303 308 311 314 317 320 324 327 329 331 332 332 330 329 328 329 329 327 326 327 330 331 331 332 334
298 297 295 295 295 294 294 294 294 294 294 294 293 293 293 293 293 293 293 294 294 294 294 294 294 294 294 294 294 294 294 294 294 294 294 294 294 294 294 294 295 295 295 295 295 295 295 295 295 295 296 296 296 296 296 296 296 297 297 297 298 301 303 306 310 315 319 323 326 327 328 328 328 327 327 328 330 330 328 326 328 330 331 331 332
298 297 296 294 294 294 294 294 293 294 294 293 293 293 293 293 293 293 293 293 293 294 294 294 294 294 294 294 294 293 294 293 293 294 293 293 293 293 294 294 294 294 294 295 295 295 295 295 295 295 295 296 295 296 296 296 296 296 297 297 298 298 298 300 305 310 314 318 321 323 324 325 325 325 326 328 329 331 330 328 327 328 330 331 332
298 297 296 294 294 294 294 293 293 293 293 293 294 294 293 293 293 293 293 293 293 293 293 293 293 294 293 293 293 293 293 293 293 293 293 293 293 293 293 293 293 293 294 294 294 294 295 295 295 295 295 296 295 296 295 295 296 296 297 297 297 297 297 299 302 306 309 312 316 319 320 321 323 323 325 326 327 328 329 329 328 327 329 330 331
297 296 296 295 294 294 294 293 293 293 293 293 293 293 293 293 293 292 293 293 293 293 293 293 293 293 293 293 293 292 292 292 292 292 292 292 292 292 292 292 292 293 293 293 294 294 294 295 295 295 295 295 295 295 295 295 295 295 296 296 296 297 298 299 301 303 305 307 310 312 314 315 317 320 322 324 325 326 327 328 328 328 329 330 330
296 296 296 295 294 293 294 293 293 293 293 293 293 293 293 293 292 292 292 292 292 293 293 293 293 293 293 292 292 292 292 292 292 292 292 292 291 291 291 292 292 292 293 293 293 294 294 294 294 295 295 295 295 295 295 295 295 295 296 296 296 296 298 299 300 301 302 303 304 305 306 306 308 313 318 321 323 325 326 327 327 328 330 331 331
297 296 296 295 294 293 293 293 293 293 293 293 293 293 292 292 292 292 292 292 292 293 293 293 292 292 292 292 292 292 292 292 291 291 291 291 291 291 291 291 291 291 292 292 292 293 293 293 294 294 295 295 295 296 297 296 296 297 298 297 296 296 296 297 298 299 299 300 301 301 301 300 301 304 310 315 320 323 324 326 327 327 328 332 334
297 296 295 295 294 293 293 293 293 293 293 293 293 293 292 292 292 291 291 292 292 292 292 292 292 292 292 292 292 291 291 291 291 291 291 290 290 290 290 290 290 290 291 291 291 292 292 293 293 293 294 295 295 297 297 297 297 298 299 299 298 298 298 298 298 297 298 299 300 300 299 299 299 299 302 306 312 318 322 325 327 328 328 329 333
297 296 295 294 294 293 293 293 293 293 293 293 293 292 292 292 291 291 291 291 291 292 292 291 291 291 292 291 291 291 291 291 290 290 290 290 289 289 289 289 290 290 290 290 291 291 292 292 293 293 294 295 296 297 297 298 298 298 298 299 299 299 299 300 299 299 299 299 299 299 299 298 298 299 299 301 304 309 315 321 326 328 328 327 330
297 296 295 294 294 293 293 293 293 293 292 292 292 292 292 291 291 291 291 291 291 291 291 291 291 291 291 291 291 290 290 290 290 289 290 289 289 289 288 289 289 289 289 289 290 290 291 291 291 292 293 294 295 297 297 297 298 298 298 298 298 299 300 300 300 300 300 299 299 299 298 298 298 298 299 300 300 302 306 312 319 325 327 327 327
296 296 295 294 293 293 293 293 292 292 292 292 292 292 291 291 291 291 291 291 291 291 291 291 291 291 291 291 290 290 290 290 289 289 289 289 289 288 288 288 288 288 288 288 289 289 290 291 291 291 292 293 294 296 296 297 297 298 298 298 298 299 299 300 301 301 301 301 300 299 299 299 299 298 298 299 300 300 301 304 309 317 323 326 326
296 295 295 294 293 293 293 292 292 292 292 292 292 291 291 291 290 290 290 291 291 290 290 290 291 291 290 290 290 290 290 289 289 289 289 289 288 288 288 287 287 287 288 288 288 289 290 290 291 292 293 293 294 295 296 296 297 297 297 298 298 298 299 299 300 301 301 302 302 301 301 300 298 298 298 299 299 300 301 301 302 306 314 321 324
296 295 294 293 293 293 293 292 291 291 291 291 291 291 291 290 290 290 290 290 291 290 290 290 290 290 290 290 290 289 290 289 289 289 289 288 288 288 287 287 287 287 287 288 288 288 289 289 290 291 292 293 294 294 295 295 296 296 297 297 297 298 298 299 300 300 301 301 301 302 302 301 300 299 298 298 299 299 300 302 302 302 305 311 317
295 295 294 293 293 293 292 291 291 291 291 291 291 291 290 290 290 291 290 290 290 290 290 290 290 289 289 289 289 289 289 289 289 289 288 288 288 287 287 287 287 287 287 287 287 288 288 289 289 291 292 292 293 293 293 294 294 295 296 296 297 297 298 298 299 300 300 301 301 301 301 301 301 301 300 300 300 300 301 302 303 305 305 305 308
295 294 294 293 293 293 292 291 290 291 291 291 290 290 290 290 290 290 290 290 290 290 289 289 289 289 289 289 289 288 288 289 289 288 288 288 287 287 286 286 286 286 286 286 287 287 287 288 289 290 291 292 292 292 293 293 293 294 294 295 296 297 297 298 298 299 300 300 300 301 301 301 301 301 301 301 301 300 300 300 301 303 305 305 306
294 294 293 293 292 292 292 290 290 291 290 290 290 290 290 290 290 290 290 289 289 289 289 289 288 288 288 288 288 288 288 288 287 287 287 287 287 286 286 286 285 285 285 286 286 287 287 288 289 290 290 291 292 292 293 293 293 293 293 294 295 296 297 297 298 298 298 299 300 300 300 300 300 300 300 301 302 302 301 300 300 300 302 303 305
294 293 293 293 292 292 291 290 290 290 290 290 290 290 289 289 289 289 289 289 288 288 288 288 288 288 288 288 288 288 287 287 286 286 286 286 286 286 285 285 285 285 285 285 286 286 286 287 288 289 290 290 291 292 292 292 293 293 294 294 295 296 296 297 298 298 298 299 299 300 300 300 300 300 300 300 301 303 303 302 302 302 302 302 303
293 293 293 292 292 292 291 290 290 290 290 290 289 289 289 289 289 289 288 288 288 288 288 288 288 287 287 287 287 287 286 285 285 285 285 285 285 285 285 284 284 284 284 285 286 286 286 287 288 289 289 290 290 291 291 292 292 293 294 295 295 296 297 297 298 298 299 299 299 299 300 300 301 301 301 300 299 300 301 303 304 304 304 304 304
293 293 293 292 292 292 291 290 290 290 290 289 289 289 289 290 289 289 289 289 288 288 287 287 287 287 287 287 287 286 285 285 284 284 285 285 285 284 284 284 284 284 285 285 286 286 286 287 288 288 288 289 290 290 291 291 292 293 294 295 296 296 296 297 298 299 299 299 299 300 300 300 301 301 301 301 300 299 299 300 302 304 304 305 305
293 292 293 292 292 292 291 290 290 290 289 289 289 289 290 290 290 290 290 289 288 288 287 287 287 287 287 286 286 286 285 285 285 285 284 284 284 284 284 284 284 284 285 285 285 285 285 286 287 287 288 289 289 290 290 291 293 294 294 295 295 296 297 297 298 299 299 299 299 300 300 300 300 301 301 301 302 302 301 301 301 303 304 305 305
292 292 292 292 292 292 291 290 290 289 290 290 289 289 290 290 290 290 289 288 288 287 287 287 286 286 286 286 285 285 285 285 285 285 284 284 283 284 284 284 284 284 284 285 285 285 285 286 286 287 288 289 289 290 290 291 293 293 293 293 294 295 296 297 298 299 300 300 300 300 300 300 301 301 301 301 302 302 303 303 303 303 304 305 306
292 292 292 292 292 291 291 291 290 289 289 289 289 289 289 289 289 289 288 287 287 287 287 287 286 286 286 285 285 285 285 285 285 284 284 283 283 283 283 284 284 284 284 285 285 285 285 286 286 287 287 288 289 289 290 291 291 291 292 293 293 294 295 297 299 299 299 299 299 299 300 300 301 301 301 301 302 303 304 305 306 306 306 307 308
292 292 292 292 292 291 291 291 290 290 289 289 289 289 288 288 288 287 287 287 287 286 286 286 286 285 285 285 285 285 285 285 284 284 283 283 283 283 283 283 284 284 284 285 285 285 285 285 286 286 287 287 288 289 289 289 290 291 291 292 293 293 295 296 297 296 296 297 297 298 299 300 300 300 300 301 302 303 304 304 305 307 307 309 310
292 292 292 292 292 291 291 291 290 290 289 289 289 288 288 288 287 287 287 287 287 287 286 287 286 286 285 285 285 285 285 284 284 284 283 283 283 282 282 283 283 283 284 284 284 285 285 285 285 285 286 287 287 288 288 289 289 290 291 291 292 292 293 294 294 294 296 296 297 298 298 299 299 299 300 300 301 301 301 301 302 303 304 305 307
292 292 292 292 292 292 291 291 290 290 289 289 288 288 288 287 287 288 288 288 288 288 288 287 287 286 285 285 284 284 284 284 284 284 283 283 283 283 282 282 283 283 283 283 284 284 284 285 285 285 285 286 286 287 288 288 289 289 289 290 290 291 292 293 293 293 295 295 296 296 297 298 298 299 299 299 300 300 300 301 301 302 303 303 304
292 292 292 292 292 292 291 291 290 290 289 289 288 288 288 287 287 288 288 288 288 288 287 286 285 285 285 285 284 284 285 284 284 284 283 283 283 283 281 281 282 282 283 283 283 284 284 284 284 284 284 285 285 286 287 288 288 288 288 288 289 290 291 291 292 292 293 294 295 296 296 297 297 297 298 299 299 299 300 300 300 301 301 303 304
291 292 292 292 292 292 292 291 290 290 289 289 288 288 287 287 287 287 287 287 287 287 286 285 284 285 284 284 285 285 285 284 284 284 283 283 282 281 281 281 281 282 282 282 283 283 283 284 283 283 284 284 285 285 286 287 288 288 288 288 288 289 290 290 291 292 292 293 294 294 295 295 296 296 297 298 298 298 299 299 299 300 301 301 302
291 291 291 292 292 292 292 291 290 290 289 289 288 288 287 287 287 286 286 286 286 285 285 284 284 284 284 284 284 284 284 284 283 283 282 282 281 280 280 280 281 281 281 282 283 283 283 283 283 283 284 284 284 284 285 286 286 287 287 288 288 288 289 290 290 291 292 292 292 292 293 294 295 295 296 297 297 298 298 299 299 300 300 301 301
291 291 291 291 292 291 291 291 290 289 289 288 288 288 287 286 286 286 286 286 285 285 284 283 283 283 283 283 284 283 283 283 283 282 282 281 280 280 280 280 281 281 281 281 282 282 283 283 283 283 283 283 284 284 284 285 285 286 286 287 287 287 288 288 289 290 290 291 291 291 292 293 293 294 295 296 297 297 298 298 298 299 299 300 301
290 290 291 291 291 291 291 290 290 289 289 288 288 287 286 286 286 286 285 285 285 284 283 283 283 282 283 283 283 282 282 282 282 282 281 280 280 280 280 280 280 280 280 281 281 282 282 282 282 282 282 283 283 283 283 284 284 285 285 286 286 286 287 287 288 288 288 289 290 290 291 292 293 293 294 295 296 296 297 297 297 298 299 299 300
Wind_Speed
4 6 8 9 10 11 10 10 9 8 8 9 9 9 9 9 7 6 4 4 4 4 4 4 5 6 6 7 8 8 8 8 8 8 8 8 8 8 8 7 7 6 7 7 8 8 8 7 8 7 7 6 6 9 10 10 10 11 12 12 13 14 14 13 13 13 13 13 13 13 13 13 14 14 13 12 12 12 11 11 11 11 12 12 13
4 5 8 8 8 9 9 8 8 7 6 6 7 8 9 10 10 9 8 7 6 5 4 4 4 4 5 6 7 8 8 8 8 8 9 9 9 9 9 8 8 7 6 6 7 9 9 9 9 9 8 7 7 9 11 11 11 11 12 12 12 13 14 14 13 13 13 14 14 14 14 14 14 14 15 14 12 13 13 13 13 13 14 14 15
2 3 5 6 7 7 7 7 6 5 5 4 5 7 8 9 10 10 10 9 8 8 7 7 6 5 5 6 7 7 7 7 7 8 8 8 9 9 9 9 9 9 9 8 7 8 9 9 9 10 9 8 8 9 10 12 12 12 13 13 13 12 13 14 14 13 12 13 14 15 16 16 15 14 15 15 14 13 13 13 13 14 15 15 17
1 0 2 4 6 5 5 6 5 4 4 4 4 5 6 7 8 9 10 9 8 8 8 8 7 7 8 8 8 8 7 7 7 7 7 8 8 8 8 8 7 9 10 9 9 9 9 10 9 9 10 9 9 9 10 11 12 13 14 14 14 13 13 13 13 13 13 13 14 15 15 16 15 14 14 14 14 14 13 12 13 15 15 16 19
4 3 1 3 6 4 3 4 4 3 3 3 3 4 4 5 6 7 8 8 7 6 6 6 5 5 7 9 9 8 8 7 6 6 7 7 7 7 7 6 6 7 8 8 9 10 10 11 11 9 9 9 10 10 10 11 11 12 13 13 14 14 14 13 13 13 13 14 14 14 15 16 15 14 13 13 14 15 13 13 15 15 16 16 18
6 6 4 4 6 4 2 3 3 3 3 3 3 3 3 3 3 4 4 5 5 5 5 5 3 3 4 6 8 7 7 7 6 5 6 7 6 7 6 6 5 5 6 7 8 9 10 11 12 11 9 9 10 11 12 11 11 11 12 12 13 15 14 14 13 13 13 14 14 13 13 15 15 13 12 12 13 14 13 13 16 16 16 16 18
7 6 5 5 6 4 3 3 3 3 3 3 3 3 3 3 3 2 2 2 3 4 5 5 4 4 4 5 6 7 6 6 5 5 6 6 6 7 7 6 6 6 5 5 7 8 8 9 10 11 10 9 10 11 13 12 11 12 12 13 14 15 15 15 14 13 13 12 12 11 12 13 13 13 13 12 12 13 14 14 16 17 17 17 16
7 7 7 6 5 5 5 4 4 3 3 3 4 4 4 4 3 3 3 2 3 3 4 4 4 4 4 5 5 6 6 6 6 6 6 6 7 7 8 8 7 8 7 6 6 7 7 8 9 9 10 9 9 10 11 12 12 13 14 14 14 14 14 15 15 15 14 11 10 11 12 12 13 13 14 15 14 14 15 15 16 18 18 17 16
8 8 8 7 5 6 5 5 5 6 5 5 5 5 5 4 4 4 4 3 3 3 3 4 4 5 5 5 5 5 5 5 5 6 6 6 6 7 8 8 8 9 9 8 7 7 7 8 8 8 8 8 9 10 11 12 12 13 15 15 15 14 14 14 14 16 15 12 11 12 12 13 13 14 14 16 17 16 16 16 16 18 18 17 15
9 10 9 8 7 8 7 7 7 7 7 7 7 7 6 6 6 5 5 5 4 4 4 4 4 5 5 5 6 6 6 5 5 5 5 5 6 6 7 7 7 8 9 9 9 9 8 8 9 9 9 9 10 11 12 12 12 12 13 15 15 15 14 13 13 15 15 13 12 12 13 14 15 16 17 19 20 19 17 17 17 18 18 17 16
10 11 11 10 10 10 9 8 8 8 8 8 8 7 7 7 6 6 6 6 5 5 4 4 4 4 5 5 5 5 6 6 5 5 5 5 5 5 5 5 5 6 7 8 9 9 9 9 9 9 10 10 12 12 12 13 13 13 13 14 14 15 15 13 13 14 14 14 13 13 13 15 16 15 17 22 23 22 20 19 19 19 18 19 20
11 12 12 12 12 11 10 9 8 8 7 7 7 6 6 7 6 7 6 6 5 5 5 4 4 4 4 4 5 5 6 6 7 6 6 6 6 5 5 5 5 6 6 6 7 7 8 8 9 11 12 12 13 13 14 14 14 14 14 14 14 15 15 15 14 14 14 15 14 14 14 14 15 15 17 21 22 22 21 21 21 20 19 19 21
13 12 12 12 12 11 10 9 9 8 7 7 6 6 6 6 6 6 6 6 5 5 5 4 4 4 4 4 5 5 6 7 8 8 7 7 7 7 6 6 6 6 7 7 7 7 7 8 9 11 12 13 14 14 15 15 16 16 15 15 15 15 15 15 15 15 15 15 15 16 16 15 15 16 18 20 20 21 21 21 22 21 20 20 21
13 13 12 11 11 11 10 9 9 8 7 7 6 6 6 6 6 6 6 6 5 5 5 5 5 5 5 5 5 6 6 7 8 8 8 8 7 7 7 7 7 7 7 8 8 8 8 9 10 11 12 12 13 14 15 16 16 17 17 17 17 16 17 16 15 15 15 15 15 16 16 16 15 16 18 20 20 20 20 20 21 22 21 21 21
13 13 12 12 11 10 9 8 7 7 7 6 6 6 6 6 6 6 6 6 6 7 7 7 7 7 6 6 6 6 6 7 8 8 9 8 8 8 8 8 8 8 9 9 9 9 9 10 11 12 13 13 14 14 15 15 15 17 17 18 18 18 18 18 16 15 16 16 16 16 16 16 16 17 19 20 20 20 20 20 20 21 22 22 22
13 12 12 11 10 9 8 7 6 5 5 5 5 5 6 6 6 7 7 8 8 8 8 8 8 8 8 8 7 7 6 6 7 8 8 8 9 9 9 10 10 10 11 11 11 11 11 12 12 13 14 14 14 14 14 14 14 15 17 18 18 18 19 20 18 17 16 16 16 15 16 16 18 19 18 19 20 20 20 20 20 21 21 22 23
13 12 11 10 10 9 8 7 6 5 4 4 4 4 5 6 6 7 7 8 9 9 9 9 10 10 9 9 9 9 8 8 8 8 8 8 8 8 9 10 11 12 12 13 14 14 15 15 15 15 16 16 16 15 15 15 15 15 16 17 18 19 19 20 20 19 18 18 18 17 17 17 19 22 20 19 21 21 21 21 21 21 21 22 25
13 12 10 10 9 8 8 7 6 5 4 4 4 4 4 5 5 6 7 8 8 9 9 9 10 10 10 10 10 10 10 10 10 10 10 10 9 9 9 10 11 12 13 14 15 16 17 18 18 18 19 19 18 18 17 17 17 17 17 18 19 20 20 21 21 19 17 18 18 18 19 19 20 22 22 22 22 23 23 24 23 22 21 21 25
13 11 11 10 9 8 7 6 5 5 4 4 4 3 3 4 5 5 6 6 7 7 8 8 8 9 10 10 10 11 11 11 11 11 12 12 11 11 11 11 11 12 12 13 14 15 16 17 18 19 20 21 21 20 20 20 19 19 19 20 20 22 22 21 19 17 17 18 17 17 18 19 21 23 24 24 24 25 25 25 25 24 23 22 23
13 12 11 10 9 8 7 6 5 5 4 4 4 4 4 4 4 5 5 6 7 7 7 7 8 8 8 9 9 10 11 11 11 11 12 12 12 13 13 14 14 14 14 14 14 14 15 15 16 17 18 19 21 21 22 22 22 21 21 21 21 22 21 18 16 16 17 17 17 17 18 19 22 24 25 25 26 27 26 25 26 26 25 23 23
13 12 11 10 9 8 7 6 5 5 4 4 4 4 4 4 4 5 5 6 6 7 7 7 8 8 8 8 9 9 9 10 10 11 11 12 12 13 14 14 15 16 16 16 16 16 15 15 15 16 17 18 18 19 20 21 22 23 23 23 22 21 18 18 19 18 17 17 17 18 18 20 21 23 24 25 25 27 28 27 27 28 27 25 24
12 11 11 11 9 9 8 7 6 5 4 4 4 4 4 4 4 4 5 5 6 7 7 8 8 8 8 9 9 9 9 9 9 9 10 11 12 13 13 14 15 16 16 16 17 17 17 16 16 16 16 17 17 17 18 19 20 21 23 24 23 20 19 21 22 20 19 18 18 18 19 20 22 23 24 24 25 26 28 29 29 29 28 26 26
12 11 12 12 11 10 9 8 7 6 5 4 4 4 4 4 3 4 4 5 6 7 8 8 8 9 9 10 10 9 9 9 9 9 10 11 12 13 13 14 15 16 16 16 17 17 17 17 17 18 18 18 18 17 17 18 18 19 20 21 21 20 22 23 22 20 20 20 21 22 23 23 24 25 25 25 25 26 28 30 31 30 29 28 27
14 12 13 14 12 11 10 9 7 6 6 5 5 5 4 4 3 3 4 5 6 7 7 8 9 9 9 10 9 9 10 10 10 11 12 12 14 15 16 16 17 17 17 17 17 17 17 18 18 19 19 19 19 18 18 18 17 18 18 18 19 21 23 23 21 19 19 21 23 25 26 26 27 27 27 26 26 26 27 30 32 32 31 30 28
15 14 14 15 14 12 11 9 8 7 7 6 6 5 5 4 3 3 4 4 5 6 7 7 8 8 9 9 9 10 10 10 11 12 13 14 15 16 17 18 19 19 20 19 19 19 18 18 19 19 19 18 19 18 18 18 18 17 17 17 19 21 22 22 21 20 20 20 22 24 26 28 30 30 30 30 30 29 29 29 31 33 33 32 31
19 17 15 16 16 14 13 11 9 7 7 7 6 6 5 5 4 4 4 4 4 5 6 7 7 7 8 8 8 9 9 10 11 12 13 14 15 16 17 18 19 19 20 20 20 20 20 19 19 18 18 18 18 18 18 18 18 18 17 18 19 19 20 20 20 20 21 20 22 24 26 29 31 32 32 32 33 32 31 30 31 33 34 34 34
21 18 16 17 17 16 14 12 9 8 7 7 7 6 6 5 5 4 3 3 4 4 5 5 6 7 7 7 7 8 8 9 10 11 12 13 14 15 15 16 17 17 17 17 18 18 19 19 19 19 19 18 18 19 18 18 19 18 18 19 19 19 20 20 20 21 22 23 25 26 28 30 31 32 33 33 34 35 34 32 32 34 35 34 35
22 19 19 18 19 18 15 12 10 9 8 8 7 6 6 6 5 4 3 3 3 4 4 5 5 6 6 7 7 7 8 8 9 10 11 12 13 14 15 16 16 16 16 16 16 16 16 16 17 18 18 18 18 17 16 17 17 16 16 18 19 20 20 21 21 22 23 24 26 28 29 31 32 33 34 34 35 35 36 36 34 34 35 35 34
22 21 22 19 20 19 15 13 11 10 10 10 9 8 7 6 5 4 3 3 3 4 4 4 4 5 5 6 6 6 7 8 9 9 10 11 13 14 15 16 16 17 18 17 17 16 15 14 14 15 15 16 16 14 14 15 15 14 14 16 17 18 19 20 22 23 24 24 26 28 30 31 32 33 35 36 36 36 36 36 36 35 36 36 35
23 22 23 20 20 19 16 14 12 12 13 12 11 10 9 7 6 5 3 3 3 4 4 4 4 4 4 5 5 6 6 7 8 8 9 11 12 14 15 15 16 17 18 17 17 17 16 14 14 14 13 13 13 13 14 14 14 14 14 15 17 17 17 18 20 21 23 24 26 27 29 31 33 34 34 36 37 38 37 36 36 36 37 38 37
22 23 24 21 21 20 17 15 14 14 15 14 13 11 10 8 7 5 4 3 3 4 4 4 3 3 3 4 5 6 6 6 7 9 10 12 13 14 15 15 15 16 17 17 18 18 17 16 16 17 16 14 13 13 13 13 14 14 14 16 17 17 17 18 19 20 22 24 26 28 30 31 32 33 34 35 36 37 39 39 39 38 38 39 40
24 26 24 23 23 20 17 16 15 15 16 15 14 12 10 8 6 5 4 3 3 3 3 3 3 2 3 4 4 5 5 6 8 10 11 12 13 14 15 15 16 17 18 18 19 19 17 16 17 18 17 16 15 13 13 14 14 14 15 16 17 17 18 18 19 20 21 22 24 27 29 31 32 33 34 35 36 36 38 40 41 42 41 41 41
25 26 25 25 24 21 19 17 16 16 15 14 13 11 10 8 6 4 3 3 3 2 2 2 1 1 2 3 4 5 5 6 8 10 11 12 13 13 14 15 16 17 18 19 20 18 16 16 17 16 15 15 14 13 14 14 14 15 15 16 17 18 19 19 19 20 21 22 23 24 25 29 32 34 35 35 36 37 38 38 40 42 43 44 43
27 27 28 27 24 23 20 18 16 16 15 13 12 10 9 7 6 5 4 3 3 2 2 1 1 1 3 4 4 5 6 8 9 10 10 11 12 13 14 15 16 17 18 18 19 17 16 17 17 15 14 14 14 14 14 15 15 15 16 16 17 18 19 20 20 21 21 22 23 24 25 27 31 33 35 36 36 37 38 38 38 40 42 45 46
32 31 31 28 25 24 21 18 16 15 14 13 11 10 9 8 7 6 6 5 4 3 2 2 2 3 3 4 5 6 8 9 10 10 10 11 12 12 13 14 16 17 17 17 18 16 15 16 15 14 14 14 14 15 15 16 16 16 16 17 18 19 20 20 21 22 22 23 23 24 26 27 28 30 31 33 35 35 36 37 37 37 39 42 44
34 34 32 28 26 23 20 18 16 14 14 12 11 11 10 10 9 8 8 6 5 4 4 4 4 4 3 4 6 8 9 9 10 10 10 11 12 12 13 14 16 17 16 16 16 14 13 14 13 11 13 14 14 15 16 16 16 17 17 18 19 20 20 21 22 22 23 23 24 25 26 28 28 29 30 30 33 36 36 37 38 39 39 40 41
34 34 32 29 26 24 21 18 16 15 14 13 13 12 11 11 10 9 9 7 6 5 6 6 4 4 4 5 7 8 8 9 9 10 11 11 12 13 14 15 16 15 15 15 14 13 12 12 11 10 12 13 14 15 15 16 16 18 19 20 20 20 21 22 23 24 24 24 25 25 25 26 28 30 30 30 30 32 34 36 38 40 40 41 42
33 33 32 30 27 25 23 19 18 17 15 15 14 13 13 12 11 10 8 7 6 6 6 5 5 5 5 6 8 8 8 9 10 10 11 12 13 14 15 16 15 14 13 14 13 14 13 12 11 12 12 13 14 15 15 16 17 19 20 21 21 22 22 23 24 24 24 25 25 26 25 24 25 27 29 29 29 29 30 32 33 36 39 41 42
33 33 32 30 27 26 23 20 20 18 17 16 15 14 12 11 9 8 7 6 6 5 5 6 5 6 7 7 8 7 8 10 11 11 12 12 13 14 15 16 15 13 12 13 13 12 13 12 12 12 12 13 14 15 16 17 18 20 21 22 22 23 24 24 25 25 25 26 25 24 23 23 24 25 26 27 28 29 30 30 29 30 34 36 38
35 34 32 31 29 27 25 22 22 20 19 17 15 14 11 10 9 7 6 5 6 6 6 6 6 7 8 8 8 8 9 10 11 11 12 13 14 14 15 16 14 12 11 12 12 12 12 12 11 12 13 13 13 13 14 16 20 21 22 22 22 23 26 26 26 25 26 25 23 22 22 22 23 23 24 24 25 27 29 31 31 30 31 33 36
35 35 34 33 31 29 28 25 24 22 21 19 17 16 12 10 9 7 6 6 6 6 5 7 7 8 9 9 9 9 10 10 11 12 13 14 14 15 15 15 13 12 12 12 14 15 14 12 11 11 12 12 12 11 12 15 18 18 18 21 23 23 23 24 26 27 26 24 21 20 20 20 21 20 21 22 23 25 26 28 30 30 31 32 33
35 37 36 35 33 31 29 26 25 24 21 19 18 17 15 12 10 8 8 7 6 6 5 7 8 9 9 9 10 10 11 11 12 13 13 14 14 14 14 14 14 13 13 13 15 15 13 11 11 11 10 11 12 11 10 12 14 15 16 17 18 18 17 18 21 21 18 17 17 18 20 20 19 19 19 21 22 23 24 25 27 28 30 32 32
35 39 38 36 35 32 29 26 26 26 23 21 20 17 16 15 12 10 10 8 7 8 8 8 9 10 10 10 10 10 11 12 12 13 14 14 14 14 14 14 15 14 13 13 13 14 13 11 10 10 11 12 12 11 9 9 13 16 15 12 11 14 13 9 10 12 13 17 21 22 22 20 19 19 20 20 21 21 22 23 24 26 27 29 30
33 40 39 37 38 34 30 28 27 26 24 24 21 18 16 15 13 12 11 10 9 9 9 9 11 10 10 10 10 11 12 13 13 14 14 15 15 14 14 14 15 14 13 12 13 13 13 12 11 10 11 12 12 12 10 9 11 12 10 9 8 10 10 7 11 16 17 18 21 20 19 20 20 20 19 20 21 22 23 24 25 27 28 28 29
32 41 41 39 39 37 33 30 28 27 26 24 21 18 17 14 12 11 10 9 9 9 9 9 10 9 9 10 11 12 13 14 14 14 15 15 15 15 15 15 15 15 14 13 13 13 13 13 12 11 11 12 14 14 13 11 11 9 8 9 8 7 9 12 16 17 15 14 17 18 20 21 22 20 21 23 24 25 26 27 27 27 28 30 31
31 39 42 41 40 38 35 32 29 27 26 23 21 19 17 14 12 9 7 7 7 7 8 9 9 10 11 11 12 12 13 14 15 15 16 16 16 16 15 16 15 15 14 14 14 13 13 12 12 11 11 11 13 15 15 12 11 12 12 12 12 12 13 15 13 12 16 18 18 20 21 20 21 23 24 25 25 25 26 25 26 28 29 31 33
31 36 42 42 41 39 36 33 31 28 26 24 22 20 17 15 13 10 9 8 7 7 9 11 12 12 14 13 13 13 14 15 16 16 16 16 17 16 16 16 16 15 15 15 16 14 13 13 13 12 12 12 12 14 16 14 12 12 13 15 17 19 20 17 12 10 15 17 16 18 20 21 22 25 27 28 27 27 28 28 29 31 32 32 33
34 37 41 42 41 40 37 34 31 28 27 25 23 21 18 16 15 13 12 11 11 10 10 13 14 14 15 14 13 14 15 16 16 17 17 17 16 16 15 15 15 15 16 16 16 15 14 14 14 13 13 13 13 14 15 14 14 13 12 13 16 18 20 20 19 15 12 14 16 18 19 21 23 25 26 28 30 30 30 31 31 31 32 32 32
37 38 41 42 41 40 37 35 32 29 27 26 24 22 19 17 16 15 13 13 14 13 12 13 14 15 15 14 14 15 16 17 17 17 17 16 15 15 15 16 16 16 16 16 14 15 15 15 15 14 14 14 14 14 16 16 15 15 14 14 15 16 18 19 21 20 15 13 15 15 16 18 21 25 26 26 29 30 30 31 32 32 32 32 33
36 38 39 41 40 39 38 35 33 31 29 27 25 23 21 19 18 18 16 14 14 13 12 13 14 14 14 14 15 16 16 17 18 18 17 16 15 15 15 16 17 17 17 16 14 15 15 15 15 15 15 16 15 15 17 17 17 17 16 16 16 16 14 14 15 17 16 14 14 15 17 16 16 20 26 27 28 29 30 31 32 34 34 34 35
31 34 36 39 40 40 38 36 34 32 31 29 26 24 22 21 21 21 21 18 17 15 13 13 13 13 14 14 15 16 17 17 18 18 17 17 16 17 17 18 18 19 18 16 15 15 15 15 15 15 16 17 17 17 19 20 20 20 19 19 21 19 16 14 14 15 14 12 13 13 16 20 20 21 25 28 30 31 32 33 34 35 35 36 36
Wind_Direction
21 37 40 28 24 19 7 14 18 21 28 33 35 38 36 31 30 23 12 1 3 355 349 340 329 326 331 334 336 334 329 327 322 319 321 324 324 322 322 326 327 335 347 349 348 344 346 349 347 346 346 342 333 342 343 331 321 314 310 302 290 285 287 289 287 285 286 285 276 267 264 266 272 274 275 273 266 269 272 260 244 239 241 238 238
16 27 36 23 15 17 9 13 21 22 24 28 38 47 50 48 49 46 46 44 41 40 37 24 4 349 340 338 342 344 340 335 328 329 329 327 324 316 310 312 313 316 324 329 332 333 337 340 339 339 339 337 326 332 338 339 334 328 325 320 311 298 291 291 290 286 283 281 276 270 264 262 267 269 271 272 266 264 267 264 254 247 245 240 240
21 17 30 8 357 6 6 6 11 18 25 35 48 57 65 65 65 61 59 60 60 59 61 61 52 45 31 14 11 9 3 1 352 349 350 346 342 336 325 315 308 307 311 313 320 329 331 330 331 332 330 329 327 325 327 331 330 330 329 328 326 319 309 299 294 288 281 279 277 274 270 267 267 265 265 267 267 265 263 262 259 257 253 250 246
178 39 22 2 3 4 8 7 10 16 30 51 63 67 74 74 76 74 65 65 72 69 70 74 70 66 60 51 43 35 29 24 12 5 3 0 360 358 350 336 322 313 312 311 316 326 326 325 324 324 324 323 325 324 322 321 320 322 324 324 324 326 328 319 310 299 285 278 277 278 276 274 272 267 263 264 267 267 265 265 266 265 264 264 256
168 145 113 51 33 20 20 16 22 27 39 55 67 74 72 75 79 77 71 71 78 73 67 65 67 72 64 56 48 40 35 28 16 12 7 2 3 1 359 356 347 334 322 313 317 325 325 324 321 317 317 318 321 321 322 320 317 315 314 316 316 319 325 327 327 318 300 282 277 280 280 281 279 272 267 266 266 267 266 271 274 271 267 266 261
160 147 132 92 54 47 53 35 39 47 53 57 58 65 63 67 71 76 77 71 68 64 57 46 33 29 33 41 38 30 24 21 12 2 357 349 346 344 344 354 355 349 335 318 318 323 325 325 322 319 314 317 321 322 324 322 317 309 304 306 310 314 316 320 324 326 318 296 283 282 284 286 286 279 274 271 269 271 268 274 280 275 269 265 260
161 160 138 101 70 79 91 73 62 57 54 56 55 53 53 51 52 53 49 50 50 49 52 41 10 346 340 3 12 10 4 359 354 341 342 339 335 331 325 331 334 334 329 323 329 327 329 329 328 322 315 316 317 320 323 322 319 311 306 306 308 313 315 317 319 321 322 311 292 284 286 288 290 288 283 277 272 273 269 276 284 279 274 268 261
164 161 134 100 94 114 102 91 82 78 69 61 59 54 56 52 50 44 36 36 38 39 42 34 17 3 349 353 2 4 350 335 334 330 335 337 337 333 323 323 324 323 317 323 341 340 336 334 334 328 320 320 316 312 311 315 320 314 308 308 308 310 314 317 318 317 318 310 292 285 286 287 290 289 288 284 279 275 270 273 281 279 277 272 262
159 153 131 96 111 136 117 109 96 91 90 84 81 73 69 65 64 58 54 48 44 44 38 32 27 28 33 35 36 30 13 354 341 334 334 334 339 335 326 321 320 321 318 317 322 328 333 332 331 326 323 323 314 302 295 299 308 308 305 306 306 305 308 311 312 312 310 299 288 286 284 284 284 284 287 285 281 281 276 272 277 278 277 274 265
153 150 139 114 123 132 124 120 108 102 97 95 93 90 87 81 76 71 68 62 57 51 46 43 37 41 46 50 49 43 34 24 9 358 350 344 344 339 331 324 319 318 317 314 309 311 317 324 323 314 310 305 297 293 291 291 294 300 301 301 302 302 303 304 305 303 301 294 289 287 283 283 283 281 281 282 281 282 281 276 276 275 275 277 272
151 151 147 138 137 132 127 120 112 107 99 97 93 91 88 85 82 76 74 70 66 59 53 48 43 42 40 42 40 34 26 17 9 6 5 3 357 350 343 336 329 320 315 312 309 307 306 308 309 304 300 295 290 290 290 288 286 288 292 294 295 297 300 301 300 297 296 295 292 287 283 284 285 282 280 284 286 285 282 279 278 274 270 273 274
148 150 151 145 144 141 137 128 119 110 102 100 93 90 82 78 75 72 71 67 64 55 48 43 40 35 29 25 19 16 11 2 357 355 356 359 357 358 353 343 337 329 322 317 313 311 309 304 298 292 291 290 290 289 286 284 282 280 281 284 288 290 295 299 298 293 292 293 292 289 285 282 281 278 278 286 291 290 285 280 279 275 268 267 268
151 151 155 152 154 154 150 143 132 124 115 109 101 97 89 84 77 72 68 63 59 49 42 34 29 22 16 7 2 359 357 354 352 352 352 353 350 349 346 342 339 335 330 323 319 314 315 311 304 295 288 287 286 287 285 283 282 280 277 276 279 281 284 293 297 292 288 289 288 288 285 282 281 279 281 288 292 292 288 281 280 276 270 265 264
156 154 157 159 162 160 156 151 142 137 127 118 111 103 96 93 86 81 73 68 60 50 41 31 25 17 10 359 355 348 345 343 342 345 347 350 349 345 340 335 334 336 334 328 324 318 314 310 308 304 297 292 287 285 284 283 282 278 276 274 272 272 274 281 290 290 287 287 286 285 283 281 279 277 280 288 291 291 288 282 280 278 272 267 264
160 158 159 159 158 156 151 145 139 135 126 117 108 101 95 91 85 83 76 71 63 54 45 37 32 25 20 11 3 353 346 340 336 337 338 341 343 343 340 334 331 330 329 329 327 322 317 310 306 302 300 298 294 289 286 285 282 277 275 273 270 268 269 271 277 282 284 285 283 281 279 278 276 275 279 285 286 287 288 282 278 277 274 271 266
164 161 160 158 152 149 145 137 132 124 116 108 99 91 87 84 80 77 72 69 63 57 51 45 40 35 31 27 20 13 5 355 348 343 339 338 336 337 336 335 333 330 328 326 325 322 319 314 309 304 299 295 294 292 290 289 286 281 276 274 272 268 266 267 269 272 275 277 278 278 277 275 274 275 280 284 282 283 286 283 278 275 274 273 267
166 163 160 159 153 149 146 140 135 126 115 105 97 93 86 81 79 75 71 67 62 56 50 45 42 38 34 30 28 25 23 18 14 11 6 359 351 345 341 340 338 336 333 329 325 323 320 317 314 310 305 299 295 293 291 290 288 287 282 278 275 272 269 266 267 268 269 269 270 273 273 273 273 274 276 279 281 280 281 282 279 276 274 273 270
166 163 161 159 156 153 149 146 143 137 127 116 108 103 96 89 83 79 74 68 62 56 48 42 36 33 31 28 27 25 24 22 22 22 22 21 15 9 3 358 352 347 341 336 331 327 323 320 317 313 310 306 302 298 294 292 290 288 285 282 280 277 274 272 272 271 269 268 268 267 267 269 271 272 272 273 276 277 278 280 278 276 274 272 271
166 164 164 161 158 157 153 153 151 146 138 128 124 111 103 95 90 86 80 74 67 60 51 44 36 31 28 24 23 22 21 20 20 20 20 19 17 13 11 8 3 358 350 344 338 332 328 323 320 316 313 310 306 303 299 295 292 290 286 284 282 281 281 281 280 275 271 270 268 265 264 266 268 271 273 273 274 275 277 277 276 275 273 270 271
169 166 166 167 163 164 160 162 161 159 154 138 133 127 119 107 100 94 86 80 70 62 55 46 40 36 31 27 23 20 18 15 14 13 12 10 7 5 4 3 0 358 354 351 346 341 336 330 326 321 316 313 309 306 302 299 296 293 290 288 285 284 285 286 284 281 277 272 269 267 266 265 266 271 273 274 274 275 276 274 273 273 272 270 270
173 169 170 171 168 170 167 170 171 169 163 146 136 130 123 109 101 92 84 77 68 62 54 47 43 41 36 34 30 26 20 13 9 5 4 2 360 358 356 356 354 353 352 351 350 347 345 341 336 331 326 320 316 311 306 302 299 296 293 291 290 289 287 283 281 282 280 276 273 270 268 266 268 272 273 274 273 273 274 273 271 271 271 270 269
172 171 174 172 169 173 172 173 173 171 163 146 133 123 116 105 97 87 78 71 64 58 51 46 43 41 37 36 34 29 22 16 8 1 359 357 356 353 352 351 349 348 348 347 347 347 346 345 343 340 336 331 328 324 318 311 305 301 297 296 295 293 288 284 282 281 279 277 275 272 269 268 270 272 273 275 274 273 272 272 271 269 269 268 269
175 173 175 176 175 175 175 175 173 170 159 147 135 126 121 109 97 86 74 64 57 52 48 42 38 36 33 33 33 26 22 16 5 359 358 356 354 349 348 347 346 346 345 345 346 346 345 345 345 343 342 342 342 339 333 326 319 312 307 304 301 297 292 290 286 281 277 275 274 272 271 271 272 273 274 275 274 273 271 270 270 269 268 267 268
177 175 177 183 182 180 182 181 177 168 160 154 145 140 138 126 111 95 80 65 55 49 44 38 35 32 29 30 28 21 21 16 4 1 0 357 354 350 350 350 350 349 348 350 351 350 349 349 348 347 348 347 346 344 339 336 332 325 319 312 306 301 298 296 290 283 278 275 273 272 272 273 274 275 275 275 273 271 269 268 268 269 268 266 266
177 176 180 187 187 187 189 187 182 173 168 163 159 160 152 141 134 115 94 75 61 54 45 39 35 30 28 27 22 17 16 12 3 3 1 358 356 354 355 354 354 353 353 356 355 354 355 355 352 352 351 347 344 343 340 338 335 331 325 318 311 306 301 298 293 287 283 278 275 273 272 272 274 276 277 275 274 272 268 266 266 268 268 266 263
180 181 179 185 190 192 193 190 185 179 177 175 172 170 161 154 151 132 111 90 68 58 49 42 34 27 25 21 18 13 10 5 360 359 359 358 357 356 356 355 355 355 354 355 354 354 355 355 353 352 350 346 344 341 338 337 334 331 326 322 318 312 306 300 295 290 287 283 278 274 272 271 271 273 275 275 275 274 271 267 264 264 267 267 263
182 182 179 183 191 195 196 192 185 183 185 183 176 171 170 168 160 143 130 109 79 65 53 45 33 24 19 15 15 10 8 4 358 357 357 357 355 355 355 354 356 356 355 355 353 353 352 351 349 349 347 345 343 341 338 336 332 329 325 324 322 317 312 304 298 292 289 286 283 279 276 275 273 270 270 271 272 274 273 270 265 261 263 266 265
183 183 183 184 191 194 195 190 185 185 186 182 174 174 180 174 165 158 148 125 96 79 61 49 34 22 14 13 14 11 11 5 0 1 359 358 355 354 355 353 354 355 355 355 354 353 352 349 346 345 344 341 339 336 332 330 328 322 316 317 318 317 314 309 304 299 295 290 286 284 282 281 279 274 270 268 267 268 270 271 268 263 261 262 265
186 185 185 185 190 193 192 189 185 185 185 180 176 180 183 177 174 171 159 133 107 92 74 59 43 26 13 11 16 14 14 9 3 3 1 357 354 354 354 352 352 352 353 353 353 353 352 348 345 344 342 338 334 327 321 321 318 313 307 305 308 310 308 306 305 303 300 295 291 288 286 284 282 279 275 271 268 266 265 267 268 266 262 260 261
188 187 188 187 190 194 191 189 188 187 184 180 179 183 183 183 184 179 163 138 110 92 76 63 53 37 17 13 17 15 12 8 1 0 358 353 352 351 350 350 350 350 351 352 350 351 350 345 344 344 339 334 328 320 317 313 308 307 303 300 301 299 296 296 297 298 297 297 296 293 291 289 286 283 280 275 272 269 265 263 263 264 264 262 259
186 187 189 189 192 193 191 191 190 187 183 182 183 185 185 188 186 176 165 145 111 89 72 60 53 39 21 15 13 10 7 360 354 355 353 349 348 347 346 348 348 349 349 349 348 348 347 343 343 343 341 334 324 316 313 308 304 303 299 299 300 296 291 289 288 288 290 293 295 296 296 295 292 289 285 281 276 273 269 265 262 261 262 262 260
188 189 188 190 193 192 191 192 191 187 184 184 184 185 189 189 183 173 172 154 110 91 74 63 57 32 7 7 1 1 1 352 347 348 347 344 342 342 343 345 346 347 347 347 348 348 345 341 339 340 338 333 325 315 310 305 301 300 297 298 298 294 292 288 285 282 282 286 289 293 295 295 295 293 290 287 283 278 274 270 266 262 261 262 261
189 191 191 194 193 190 190 191 190 187 184 184 184 186 189 186 181 177 179 154 119 111 97 83 73 21 339 341 342 345 347 341 337 337 338 337 336 338 340 342 343 343 345 346 348 347 342 337 337 335 329 325 319 312 310 305 299 299 297 296 295 293 292 289 285 281 279 279 281 284 287 290 294 294 292 290 286 283 279 274 270 266 262 261 262
189 190 195 195 193 192 191 190 189 187 185 184 183 184 187 184 180 180 182 162 141 142 137 160 229 295 313 316 319 327 330 327 326 326 329 330 332 334 335 337 338 340 344 345 346 345 339 336 337 330 324 319 314 311 308 303 299 298 296 295 294 292 291 288 285 283 279 278 278 277 278 283 288 290 292 291 289 286 283 279 275 272 267 263 262
193 193 195 193 195 195 192 190 188 187 186 185 185 186 186 182 176 178 183 172 162 166 176 207 243 263 288 302 308 317 319 316 317 319 322 325 328 328 329 330 332 339 342 342 344 344 337 336 335 325 321 316 310 310 308 304 300 297 294 292 291 290 289 286 285 282 280 279 277 276 277 278 279 282 286 287 288 286 283 282 280 277 273 268 264
197 195 193 191 195 195 193 191 188 188 188 188 189 189 188 185 182 185 186 180 176 181 199 218 238 259 278 295 304 309 309 308 310 314 318 321 322 321 321 323 329 335 337 339 341 338 332 333 329 316 311 309 305 304 302 301 299 296 295 291 286 285 284 283 282 280 279 278 275 274 276 277 277 277 278 279 282 285 284 283 281 278 274 271 267
197 195 192 191 194 194 194 191 189 190 190 191 192 191 192 190 189 191 192 189 189 193 209 222 233 258 280 289 297 301 302 305 308 312 315 314 315 315 316 319 325 329 330 333 334 329 329 325 315 306 301 299 299 298 298 299 296 294 293 290 286 281 277 277 278 278 277 275 273 273 272 274 279 281 280 278 278 281 283 284 284 281 276 272 269
195 195 194 194 194 195 194 192 193 192 192 194 194 196 196 195 195 195 198 200 205 211 221 230 239 262 281 284 290 296 299 306 310 312 311 309 311 312 314 316 319 321 321 324 325 325 327 318 306 305 301 297 297 298 300 300 296 292 289 286 284 279 274 272 272 272 271 270 270 270 270 271 275 278 281 283 282 279 279 280 281 281 280 276 273
193 194 196 196 195 195 196 195 196 194 195 197 196 199 198 197 199 200 207 208 214 229 236 241 252 268 278 281 286 295 296 303 309 309 309 308 309 309 309 311 312 310 309 314 318 316 317 313 303 299 299 296 296 298 301 302 298 293 288 285 283 278 275 271 268 265 263 265 265 267 268 267 267 268 272 279 284 285 283 281 278 276 277 277 275
193 194 195 196 197 197 197 197 197 196 196 197 197 198 196 196 199 200 205 206 216 236 247 250 259 271 276 281 286 292 294 301 309 309 309 309 308 306 304 304 301 293 290 299 306 305 307 307 296 292 295 296 295 294 299 304 301 295 291 288 285 280 275 269 263 260 260 261 262 263 262 263 265 263 264 268 274 280 283 283 280 275 274 274 274
193 194 193 196 198 198 198 197 197 198 196 195 196 195 192 193 198 196 194 201 220 234 247 253 260 268 273 280 285 291 295 302 309 309 309 308 305 302 298 293 286 278 278 291 303 308 310 303 294 291 289 291 294 294 302 307 304 304 304 299 291 282 274 268 261 258 259 260 258 260 260 263 265 264 266 268 269 271 274 276 277 276 275 274 274
191 193 194 196 197 198 199 197 198 199 197 196 197 197 196 194 192 194 199 208 225 230 232 245 258 266 271 277 281 289 295 301 306 306 305 302 298 294 289 285 282 279 283 295 304 307 304 296 292 293 287 286 289 292 303 311 310 312 312 306 301 294 280 268 260 253 256 265 265 266 270 272 269 269 272 272 271 271 271 272 271 272 274 274 273
191 193 195 196 197 198 198 198 200 201 200 201 200 200 203 204 202 207 214 219 230 236 235 244 257 262 265 272 279 286 293 298 300 301 300 298 295 290 286 284 282 283 285 291 297 298 296 291 285 287 290 290 288 288 295 305 308 311 308 302 311 315 300 275 265 268 276 283 280 276 276 277 276 278 280 277 276 275 275 275 274 274 274 274 273
190 193 195 196 197 197 197 198 199 201 202 204 204 203 207 212 214 220 229 232 240 247 249 255 258 261 266 272 279 284 290 294 296 298 298 297 296 291 287 282 278 283 287 287 290 293 293 290 283 280 287 293 293 291 287 287 295 304 309 304 306 305 298 313 318 302 291 285 283 279 278 283 286 287 286 283 281 281 281 279 277 277 277 276 275
193 195 196 196 198 199 199 199 199 201 203 204 204 205 208 213 218 225 237 243 246 248 251 252 251 257 264 269 276 282 287 290 294 297 297 297 297 293 288 281 278 283 286 286 288 289 288 286 283 279 277 283 290 292 287 279 273 272 283 295 301 296 296 319 320 306 300 296 291 288 285 286 290 289 287 284 282 282 282 280 277 275 275 275 273
196 197 197 198 199 200 201 200 200 201 203 203 204 206 208 210 212 213 221 230 233 231 233 237 241 253 261 267 275 282 286 289 294 297 297 298 296 295 290 284 283 284 285 288 288 286 284 280 276 274 270 271 278 284 285 280 269 259 256 260 267 274 291 310 315 304 305 301 293 290 287 286 287 287 285 282 280 280 280 279 278 277 275 272 269
197 198 198 199 200 201 203 202 201 201 201 203 205 207 208 209 209 210 216 224 229 231 237 247 255 263 268 274 281 286 289 291 295 298 298 298 296 295 291 287 287 287 288 292 291 287 282 278 274 270 268 267 267 272 279 282 277 265 257 255 258 263 273 284 289 296 304 301 292 289 288 286 285 283 281 278 277 277 276 275 275 276 274 271 268
198 198 198 199 200 202 204 203 201 201 202 203 206 208 208 210 213 216 223 231 236 238 245 255 261 267 272 278 284 288 291 293 296 298 299 298 296 292 286 286 287 289 293 292 289 285 279 276 275 269 266 264 259 264 273 278 276 272 269 264 262 264 265 267 270 277 290 297 296 291 287 287 286 281 279 277 275 273 273 273 272 272 272 271 269
199 199 198 199 200 202 204 203 201 200 201 203 207 209 210 212 214 215 220 229 238 241 244 252 260 266 274 280 284 288 292 295 299 301 301 299 295 289 285 289 291 293 296 290 281 277 272 268 267 264 262 262 258 262 268 270 270 271 273 271 268 268 267 265 266 268 270 279 291 294 292 292 287 282 279 277 275 273 271 270 270 270 269 269 270
201 200 199 200 201 202 203 201 199 199 201 203 205 209 211 213 213 214 217 223 231 237 239 246 254 261 270 277 283 287 291 296 300 302 303 302 297 294 295 297 297 298 297 288 276 272 268 264 263 259 259 261 261 260 262 265 267 267 267 269 269 267 267 266 262 262 265 267 276 285 290 291 286 282 281 278 276 274 271 270 269 269 268 266 267
198 198 199 201 201 202 202 199 197 198 199 201 204 207 210 212 214 217 220 222 226 230 233 239 247 255 265 275 281 286 291 297 301 303 302 301 300 302 304 303 302 301 297 287 274 270 266 264 262 260 259 259 259 260 261 263 264 265 264 262 262 261 261 264 264 265 267 268 272 277 284 288 288 282 279 277 276 275 273 271 268 267 266 266 265